Regional Weather Roundup
Issued by NWS

Home | Current Version | Previous Version | Text Only | Print | Product List | Glossary Off
Versions: 1 2 3 4 5 6 7 8 9 10 11 12 13 14 15 16 17 18 19 20 21 22 23 24 25 26 27 28 29 30 31 32 33 34 35 36 37 38 39 40 41 42 43 44 45 46 47 48 49 50

000
ASUS45 KTFX 031119
RWRMT
MONTANA HOURLY WEATHER ROUNDUP
NATIONAL WEATHER SERVICE GREAT FALLS MT
419 AM MST TUE MAR 3 2015

NOTE: "FAIR" INDICATES FEW OR NO CLOUDS BELOW 12000 FEET WITH NO
SIGNIFICANT WEATHER AND/OR OBSTRUCTIONS TO VISIBILITY.

* THESE STATIONS ARE NOT UNDER NWS QUALITY CONTROL. THEY DO NOT
   REPORT WEATHER SUCH AS PRECIPITATION OR FOG.

MTZ001>007-043-031200-
WEST OF THE DIVIDE
CITY           SKY/WX    TMP DP  RH WIND       PRES   REMARKS
KALISPELL      CLOUDY    18   0  45 N9        30.16R WCI   7
MISSOULA       CLEAR     18   1  47 E12       30.13R WCI   5
BUTTE          LGT SNOW   9   0  66 N15G22    29.95R WCI  -8
MULLAN PASS    MOCLDY     7   3  83 VRB3      29.89R
* ANACONDA     PTCLDY     9   0  66 N14G20     N/A   WCI  -7
* ESSEX        N/A        9  -5  52 SE7        N/A   WCI  -2
* EUREKA APT   CLEAR     12   1  61 CALM      30.21R
* HAMILTON APT PTCLDY    16   5  62 N3        30.06R
* LIBBY APT    CLEAR      7   3  83 CALM      30.20R
* LINCOLN      N/A        8  -2  63 NE11G16    N/A   WCI  -7
* LOOKOUT PASS N/A       15   8  74 VRB5       N/A   WCI   7
* POLSON       N/A       15   2  56 E2         N/A
* RONAN APT    PTCLDY    21   3  45 E8         N/A   WCI  11
* SEELEY LAKE  N/A        9   0  66 SW1        N/A
* THOMP F APT  CLEAR     14   1  56 N11G24     N/A   WCI   1
* YAAK HILL    N/A       21   7  55 N1G6       N/A
$$

MTZ008-052>055-031200-
SOUTHWEST MONTANA
CITY           SKY/WX    TMP DP  RH WIND       PRES   REMARKS
BOZEMAN        CLOUDY    12   7  80 NW12      30.00R WCI  -2
DILLON         MOCLDY    10   1  67 NE23      29.92R WCI -10
* W YELLOWSTON CLOUDY     9   3  76 N8G18      N/A   WCI  -3
* THREE FORKS  PTCLDY    12   1  61 S15G23     N/A   WCI  -4
* BOULDER HILL N/A        5   0  80 N19G24     N/A   WCI -15
* MONIDA PASS  N/A        9   5  84 NW14G19    N/A   WCI  -7
* RAYNOLDS PAS N/A        5   3  91 NW24G31    N/A   WCI -17
* WHITEHALL    N/A       12   1  61 N12G20     N/A   WCI  -2
* WISE RIVER   N/A        9  -3  58 E12G19     N/A   WCI  -6
$$

MTZ009>010-012-014-046-048-049-054-031200-
EAST SLOPES AND CENTRAL MONTANA
CITY           SKY/WX    TMP DP  RH WIND       PRES   REMARKS
CUT BANK       FAIR      -2  -8  75 W9        30.19F WCI -18
GREAT FALLS    CLOUDY     1  -2  87 NE5       30.20S WCI  -9
HELENA         CLOUDY    12   3  67 N15       30.14R WCI  -4
MALMSTROM AFB  PTCLDY     5   1  83 N5        30.23R WCI  -5
* CONRAD       CLEAR      7  -2  66 CALM       N/A
* DEARBORN     N/A       11   2  67 N/A        N/A
* EAST GLACIER N/A       -1  -5  83 E1         N/A
* MONARCH      N/A        1  -4  79 VRB8       N/A   WCI -13
* PENDROY      N/A        2  -3  79 VRB6       N/A   WCI  -9
* ROGERS PASS  N/A        2  -3  79 S4         N/A
* SWEET GRASS  N/A        0  -8  68 NW11       N/A   WCI -17
$$

MTZ011-013-016-021-035-040-045-047-050-051-031200-
NORTH CENTRAL MONTANA
CITY           SKY/WX    TMP DP  RH WIND       PRES   REMARKS
HAVRE          CLOUDY     9   1  70 NW13G18   30.25R WCI  -7
LEWISTOWN      MOCLDY     5  -4  66 NW9       30.11R WCI  -9
* N BAR RANCH  MOCLDY     5  -4  66 NW21G30   30.04R WCI -16
* CHINOOK      CLEAR      7   0  73 W12       30.24S WCI  -9
* FORT BENTON  PTCLDY     7   0  73 SW7       30.28R WCI  -5
* CHESTER      N/A        5  -6  60 N7G15      N/A   WCI  -7
* DENTON       N/A        7  -1  69 NW11G19    N/A   WCI  -8
* GEYSER       N/A        5  -1  76 W11G17     N/A   WCI -10
* JUDITH GAP   N/A        4   3  96 N29G34     N/A   WCI -20
* LOMA         N/A        7   0  73 SW7        N/A   WCI  -5
$$

MTZ017>020-022>027-061-062-031200-
NORTHEAST MONTANA
CITY           SKY/WX    TMP DP  RH WIND       PRES   REMARKS
GLASGOW        PTCLDY     7  -6  55 NW17G30   30.14S WCI -11
GLENDIVE       CLOUDY     9   0  66 NW13G20   30.08R WCI  -7
JORDAN         CLOUDY     9   0  66 NW15      30.13R WCI  -8
SIDNEY         CLEAR      7  -2  66 NW12G18   30.12R WCI  -9
WOLF POINT     PTCLDY     9   0  66 W10       30.15R WCI  -5
* BEAVER HILL  N/A        8  -2  63 NW24G32    N/A   WCI -13
* CIRCLE       N/A        8  -2  63 NW11G17    N/A   WCI  -7
* LINDSAY DVD  N/A        4  -4  69 NW20G27    N/A   WCI -17
* NAVAJO       N/A        1  -4  79 NW19G26    N/A   WCI -20
* PLENTYWOOD A PTCLDY     1  -4  79 NW18      30.02R WCI -20
* POPLAR APT   PTCLDY     7   0  73 W13       30.13R WCI  -9
* SACO         N/A        5  -1  76 W9         N/A   WCI  -9
* SCOBEY APT   PTCLDY     3  -8  60 NW16G23    N/A   WCI -16
$$

MTZ028>042-056>058-031200-
SOUTHCENTRAL AND SOUTHEAST MONTANA
CITY           SKY/WX    TMP DP  RH WIND       PRES   REMARKS
BAKER          CLOUDY    10   3  73 NW22G30   30.00R WCI -10
BILLINGS       LGT SNOW  12   1  61 N14       30.07S WCI  -4
LIVINGSTON     LGT SNOW  10   1  67 E10       30.03R VSB 3    WCI  -4
MILES CITY     CLOUDY    14   3  61 N14       30.09R WCI  -1
* BIG TIMBER A CLOUDY     9  -2  61 N12G20    30.04S WCI  -6
* FORSYTH APT  CLOUDY    14   7  73 NW9       30.12R WCI   2
* LAUREL APT   CLOUDY    12   1  61 N8         N/A
* ROUNDUP APT  CLOUDY    10   0  64 N9         N/A   WCI  -3
* ALZADA       N/A       12   7  80 NW12       N/A   WCI  -2
* HYSHAM       N/A       12   4  70 N7G16      N/A   WCI   1
* REED POINT   N/A       12   5  73 W6G15      N/A   WCI   2
* ROSCOE HILL  N/A        5   1  83 NW10G16    N/A   WCI -10
$$

REGIONAL REPORTS...DAKOTAS
CITY           SKY/WX    TMP DP  RH WIND       PRES   REMARKS
WILLISTON      PTCLDY     3  -6  66 W9        30.07R WCI -11
DICKINSON      CLOUDY     9  -6  50 NW26G36   29.93R WCI -12
BEACH          CLOUDY     7   0  73 N23G33    30.02R WCI -14
CROSBY         CLEAR      0  -4  83 NW21      30.02R WCI -22
TIOGA          MOCLDY     0  -2  91 NW20      30.01R WCI -22
WATFORD CITY   CLEAR      5  -2  72 NW12      30.02R WCI -11
BISMARCK       CLOUDY    12   0  58 NW22G36   29.94R WCI  -7
GRAND FORKS    CLOUDY    19  12  74 NW17G23   29.75S WCI   4
FARGO          LGT SNOW  23  16  74 NW24G31   29.73S WCI   7
BUFFALO SD     CLOUDY    12   5  73 NW25G36   29.85R WCI  -8
RAPID CITY     FOG       16  12  84 N33G46    29.86R VSB 1    WCI  -5
$$

REGIONAL REPORTS...WYOMING/IDAHO/WASHINGTON
CITY           SKY/WX    TMP DP  RH WIND       PRES   REMARKS
GILLETTE       LGT SNOW  10   7  88 N24       29.92R VSB 1 1/2 WCI -10
SHERIDAN       LGT SNOW  12   9  88 NW18      30.02R VSB 2 1/2 WCI  -5
CODY           CLOUDY    10   5  80 N15G26    29.92R WCI  -7
YELLOWSTONE LA MOCLDY     7   0  73 CALM      29.68R
SALMON         CLOUDY    21   3  45 NE15G20   29.92R WCI   7
MULLAN PASS    MOCLDY     7   3  83 VRB3      29.89S
SAND POINT     CLEAR     27  10  49 NE13      30.16R WCI  16
SPOKANE        FAIR      21  16  81 N7        30.11R WCI  12
$$

REGIONAL REPORTS...ALBERTA
CITY           SKY/WX    TMP DP  RH WIND       PRES   REMARKS
CALGARY        N/A        3  -8  60 W7        30.21S WCI  -9
LETHBRIDGE     CLEAR      7  -4  60 NW9G17    30.27F WCI  -6
MEDICINE HAT   PTCLDY     3  -4  72 NW12      30.28F WCI -14
EDMONTON       N/A       -6 -15  64 W8        30.25F WCI -21
WATERTON GATE  N/A        0  -4  83 CALM       N/A
CARDSTON       N/A        1   0  95 N1         N/A
MILK RIVER     N/A       -6  -9  87 W3         N/A
$$

REGIONAL REPORTS...SASKATCHEWAN
CITY           SKY/WX    TMP DP  RH WIND       PRES   REMARKS
SWIFT CURRENT  LGT SNOW   0  -6  75 NW23G29   30.09F WCI -23
MOOSE JAW      SNOW      -2  -6  83 NW22      30.09S WCI -26
REGINA         SNOW      -4  -9  79 NW18      30.04S WCI -26
VAL MARIE      N/A        1  -2  87 NW7        N/A   WCI -12
ASSINIBOIA     N/A       -2  -8  75 NW20       N/A   WCI -25
CORONACH       N/A        1  -4  79 NW21G30    N/A   WCI -21

$$



USA.gov is the U.S. government's official web portal to all federal, state and local government web resources and services.